Time,TemperatureF,DewpointF,PressureIn,WindDirection,WindDirectionDegrees,WindSpeedMPH,WindSpeedGustMPH,Humidity,HourlyPrecipIn,Conditions,Clouds,dailyrainin,SolarRadiationWatts/m^2,SoftwareType,DateUTC
2013-05-15 00:02:00,33.0,21.0,-100.00,East,100,0.0,2.0,60,0.00,,,0.00,2.000000,,2013-05-15 08:02:00,
2013-05-15 00:12:00,33.0,21.0,-100.00,East,100,0.0,2.0,60,0.00,,,0.00,2.000000,,2013-05-15 08:12:00,
2013-05-15 00:21:00,33.0,21.0,-100.00,East,100,0.0,2.0,60,0.00,,,0.00,2.000000,,2013-05-15 08:21:00,
2013-05-15 00:53:00,30.0,22.0,-100.00,South,182,0.0,2.0,71,0.00,,,0.00,0.000000,,2013-05-15 08:53:00,
2013-05-15 01:01:00,30.0,22.0,-100.00,South,182,0.0,2.0,71,0.00,,,0.00,0.000000,,2013-05-15 09:01:00,
2013-05-15 01:11:00,30.0,22.0,-100.00,South,182,0.0,2.0,71,0.00,,,0.00,0.000000,,2013-05-15 09:11:00,
2013-05-15 01:21:00,30.0,22.0,-100.00,South,182,0.0,2.0,71,0.00,,,0.00,0.000000,,2013-05-15 09:21:00,
2013-05-15 01:53:00,29.0,21.0,-100.00,ENE,74,0.0,3.0,73,0.00,,,0.00,0.000000,,2013-05-15 09:53:00,
2013-05-15 02:02:00,29.0,21.0,-100.00,ENE,74,0.0,3.0,73,0.00,,,0.00,0.000000,,2013-05-15 10:02:00,
2013-05-15 02:12:00,29.0,21.0,-100.00,ENE,74,0.0,3.0,73,0.00,,,0.00,0.000000,,2013-05-15 10:12:00,
2013-05-15 02:22:00,29.0,21.0,-100.00,ENE,74,0.0,3.0,73,0.00,,,0.00,0.000000,,2013-05-15 10:22:00,
2013-05-15 02:52:00,30.0,23.0,-100.00,SSE,167,0.0,3.0,74,0.00,,,0.00,0.000000,,2013-05-15 10:52:00,
2013-05-15 03:07:00,30.0,23.0,-100.00,SSE,167,0.0,3.0,74,0.00,,,0.00,0.000000,,2013-05-15 11:07:00,
2013-05-15 03:15:00,30.0,23.0,-100.00,SSE,167,0.0,3.0,74,0.00,,,0.00,0.000000,,2013-05-15 11:15:00,
2013-05-15 03:23:00,30.0,23.0,-100.00,SSE,167,0.0,3.0,74,0.00,,,0.00,0.000000,,2013-05-15 11:23:00,
2013-05-15 04:06:00,29.0,24.0,-100.00,South,190,0.0,3.0,80,0.00,,,-99.99,0.000000,,2013-05-15 12:06:00,
2013-05-15 04:12:00,29.0,24.0,-100.00,South,190,0.0,3.0,80,0.00,,,-99.99,0.000000,,2013-05-15 12:12:00,
2013-05-15 04:23:00,29.0,24.0,-100.00,South,190,0.0,3.0,80,0.00,,,-99.99,0.000000,,2013-05-15 12:23:00,
2013-05-15 04:56:00,30.0,24.0,-100.00,SSW,204,0.0,2.0,79,0.00,,,0.00,0.000000,,2013-05-15 12:56:00,
2013-05-15 05:05:00,30.0,24.0,-100.00,SSW,204,0.0,2.0,79,0.00,,,0.00,0.000000,,2013-05-15 13:05:00,
2013-05-15 05:14:00,30.0,24.0,-100.00,SSW,204,0.0,2.0,79,0.00,,,0.00,0.000000,,2013-05-15 13:14:00,
2013-05-15 05:23:00,30.0,24.0,-100.00,SSW,204,0.0,2.0,79,0.00,,,0.00,0.000000,,2013-05-15 13:23:00,
2013-05-15 05:58:00,30.0,24.0,-100.00,East,101,0.0,3.0,77,0.00,,,0.00,2.000000,,2013-05-15 13:58:00,
2013-05-15 06:04:00,30.0,24.0,-100.00,East,101,0.0,3.0,77,0.00,,,0.00,2.000000,,2013-05-15 14:04:00,
2013-05-15 06:12:00,30.0,24.0,-100.00,East,101,0.0,3.0,77,0.00,,,0.00,2.000000,,2013-05-15 14:12:00,
2013-05-15 06:24:00,30.0,24.0,-100.00,East,101,0.0,3.0,77,0.00,,,0.00,2.000000,,2013-05-15 14:24:00,
2013-05-15 06:58:00,28.0,24.0,-100.00,NNW,334,0.0,3.0,83,0.00,,,0.00,21.000000,,2013-05-15 14:58:00,
2013-05-15 07:06:00,28.0,24.0,-100.00,NNW,334,0.0,3.0,83,0.00,,,0.00,21.000000,,2013-05-15 15:06:00,
2013-05-15 07:13:00,28.0,24.0,-100.00,NNW,334,0.0,3.0,83,0.00,,,0.00,21.000000,,2013-05-15 15:13:00,
2013-05-15 07:24:00,28.0,24.0,-100.00,NNW,334,0.0,3.0,83,0.00,,,0.00,21.000000,,2013-05-15 15:24:00,
2013-05-15 07:59:00,33.0,24.0,-100.00,South,169,0.0,1.0,70,0.00,,,0.00,91.000000,,2013-05-15 15:59:00,
2013-05-15 08:06:00,33.0,24.0,-100.00,South,169,0.0,1.0,70,0.00,,,0.00,91.000000,,2013-05-15 16:06:00,
2013-05-15 08:17:00,33.0,24.0,-100.00,South,169,0.0,1.0,70,0.00,,,0.00,91.000000,,2013-05-15 16:17:00,
2013-05-15 08:57:00,39.0,26.0,-100.00,South,177,0.0,2.0,60,0.00,,,0.00,178.000000,,2013-05-15 16:57:00,
2013-05-15 09:07:00,39.0,26.0,-100.00,South,177,0.0,2.0,60,0.00,,,0.00,178.000000,,2013-05-15 17:07:00,
2013-05-15 09:14:00,39.0,26.0,-100.00,South,177,0.0,2.0,60,0.00,,,0.00,178.000000,,2013-05-15 17:14:00,
2013-05-15 09:57:00,45.0,24.0,-100.00,West,263,1.0,3.0,44,0.00,,,0.00,308.000000,,2013-05-15 17:57:00,
2013-05-15 10:04:00,45.0,24.0,-100.00,West,263,1.0,3.0,44,0.00,,,0.00,308.000000,,2013-05-15 18:04:00,
2013-05-15 10:13:00,45.0,24.0,-100.00,West,263,1.0,3.0,44,0.00,,,0.00,308.000000,,2013-05-15 18:13:00,
2013-05-15 11:06:00,47.0,23.0,-100.00,WNW,301,1.0,5.0,38,0.00,,,0.00,410.000000,,2013-05-15 19:06:00,
2013-05-15 11:13:00,47.0,23.0,-100.00,WNW,301,1.0,5.0,38,0.00,,,0.00,410.000000,,2013-05-15 19:13:00,
2013-05-15 11:24:00,47.0,23.0,-100.00,WNW,301,1.0,5.0,38,0.00,,,0.00,410.000000,,2013-05-15 19:24:00,
2013-05-15 11:56:00,49.0,22.0,-100.00,NNW,332,1.0,7.0,34,0.00,,,0.00,470.000000,,2013-05-15 19:56:00,
2013-05-15 12:04:00,49.0,22.0,-100.00,NNW,332,1.0,7.0,34,0.00,,,0.00,470.000000,,2013-05-15 20:04:00,
2013-05-15 12:13:00,49.0,22.0,-100.00,NNW,332,1.0,7.0,34,0.00,,,0.00,470.000000,,2013-05-15 20:13:00,
2013-05-15 12:22:00,49.0,22.0,-100.00,NNW,332,1.0,7.0,34,0.00,,,0.00,470.000000,,2013-05-15 20:22:00,
2013-05-15 12:55:00,49.0,26.0,-100.00,WNW,289,2.0,10.0,41,0.00,,,0.00,446.000000,,2013-05-15 20:55:00,
2013-05-15 13:05:00,49.0,26.0,-100.00,WNW,289,2.0,10.0,41,0.00,,,0.00,446.000000,,2013-05-15 21:05:00,
2013-05-15 13:16:00,49.0,26.0,-100.00,WNW,289,2.0,10.0,41,0.00,,,0.00,446.000000,,2013-05-15 21:16:00,
2013-05-15 13:26:00,49.0,26.0,-100.00,WNW,289,2.0,10.0,41,0.00,,,0.00,446.000000,,2013-05-15 21:26:00,
2013-05-15 14:00:00,48.0,27.0,-100.00,West,259,3.0,8.0,44,0.00,,,-99.99,461.000000,,2013-05-15 22:00:00,
2013-05-15 14:07:00,48.0,27.0,-100.00,West,259,3.0,8.0,44,0.00,,,-99.99,461.000000,,2013-05-15 22:07:00,
2013-05-15 14:15:00,48.0,27.0,-100.00,West,259,3.0,8.0,44,0.00,,,-99.99,461.000000,,2013-05-15 22:15:00,
2013-05-15 14:59:00,51.0,28.0,-100.00,WNW,297,3.0,10.0,40,0.00,,,0.00,620.000000,,2013-05-15 22:59:00,
2013-05-15 15:06:00,51.0,28.0,-100.00,WNW,297,3.0,10.0,40,0.00,,,0.00,620.000000,,2013-05-15 23:06:00,
2013-05-15 15:24:00,51.0,28.0,-100.00,WNW,297,3.0,10.0,40,0.00,,,0.00,620.000000,,2013-05-15 23:24:00,
2013-05-15 15:59:00,49.0,26.0,-100.00,West,275,3.0,9.0,41,0.00,,,0.00,462.000000,,2013-05-15 23:59:00,
2013-05-15 16:15:00,49.0,26.0,-100.00,West,275,3.0,9.0,41,0.00,,,0.00,462.000000,,2013-05-16 00:15:00,
2013-05-15 16:22:00,49.0,26.0,-100.00,West,275,3.0,9.0,41,0.00,,,0.00,462.000000,,2013-05-16 00:22:00,
2013-05-15 16:57:00,50.0,24.0,-100.00,SW,227,3.0,13.0,36,0.00,,,0.00,459.000000,,2013-05-16 00:57:00,
2013-05-15 17:05:00,50.0,24.0,-100.00,SW,227,3.0,13.0,36,0.00,,,0.00,459.000000,,2013-05-16 01:05:00,
2013-05-15 17:13:00,50.0,24.0,-100.00,SW,227,3.0,13.0,36,0.00,,,0.00,459.000000,,2013-05-16 01:13:00,
2013-05-15 17:23:00,50.0,24.0,-100.00,SW,227,3.0,13.0,36,0.00,,,0.00,459.000000,,2013-05-16 01:23:00,
2013-05-15 17:59:00,48.0,23.0,-100.00,SSW,210,3.0,9.0,37,0.00,,,0.00,250.000000,,2013-05-16 01:59:00,
2013-05-15 18:05:00,48.0,23.0,-100.00,SSW,210,3.0,9.0,37,0.00,,,0.00,250.000000,,2013-05-16 02:05:00,
2013-05-15 18:13:00,48.0,23.0,-100.00,SSW,210,3.0,9.0,37,0.00,,,0.00,250.000000,,2013-05-16 02:13:00,
2013-05-15 18:25:00,48.0,23.0,-100.00,SSW,210,3.0,9.0,37,0.00,,,0.00,250.000000,,2013-05-16 02:25:00,
2013-05-15 19:04:00,46.0,25.0,-100.00,North,355,2.0,9.0,44,0.00,,,0.00,111.000000,,2013-05-16 03:04:00,
2013-05-15 19:14:00,46.0,25.0,-100.00,North,355,2.0,9.0,44,0.00,,,0.00,111.000000,,2013-05-16 03:14:00,
2013-05-15 19:22:00,46.0,25.0,-100.00,North,355,2.0,9.0,44,0.00,,,0.00,111.000000,,2013-05-16 03:22:00,
2013-05-15 20:02:00,40.0,33.0,-100.00,North,5,3.0,11.0,77,0.02,,,0.02,55.000000,,2013-05-16 04:02:00,
2013-05-15 20:12:00,40.0,33.0,-100.00,North,5,3.0,11.0,77,0.02,,,0.02,55.000000,,2013-05-16 04:12:00,
2013-05-15 20:23:00,40.0,33.0,-100.00,North,5,3.0,11.0,77,0.02,,,0.02,55.000000,,2013-05-16 04:23:00,
2013-05-15 20:53:00,41.0,35.0,-100.00,NNE,12,1.0,5.0,78,0.00,,,0.02,73.000000,,2013-05-16 04:53:00,
2013-05-15 21:02:00,41.0,35.0,-100.00,NNE,12,1.0,5.0,78,0.00,,,0.02,73.000000,,2013-05-16 05:02:00,
2013-05-15 21:12:00,41.0,35.0,-100.00,NNE,12,1.0,5.0,78,0.00,,,0.02,73.000000,,2013-05-16 05:12:00,
2013-05-15 21:22:00,41.0,35.0,-100.00,NNE,12,1.0,5.0,78,0.00,,,0.02,73.000000,,2013-05-16 05:22:00,
2013-05-15 21:52:00,41.0,34.0,-100.00,NNW,331,2.0,4.0,75,0.00,,,0.02,48.000000,,2013-05-16 05:52:00,
2013-05-15 22:01:00,41.0,34.0,-100.00,NNW,331,2.0,4.0,75,0.00,,,0.02,48.000000,,2013-05-16 06:01:00,
2013-05-15 22:12:00,41.0,34.0,-100.00,NNW,331,2.0,4.0,75,0.00,,,0.02,48.000000,,2013-05-16 06:12:00,
2013-05-15 22:22:00,41.0,34.0,-100.00,NNW,331,2.0,4.0,75,0.00,,,0.02,48.000000,,2013-05-16 06:22:00,
2013-05-15 22:53:00,38.0,33.0,-100.00,NE,36,1.0,5.0,82,0.00,,,0.02,22.000000,,2013-05-16 06:53:00,
2013-05-15 23:02:00,38.0,33.0,-100.00,NE,36,1.0,5.0,82,0.00,,,0.02,22.000000,,2013-05-16 07:02:00,
2013-05-15 23:12:00,38.0,33.0,-100.00,NE,36,1.0,5.0,82,0.00,,,0.02,22.000000,,2013-05-16 07:12:00,
2013-05-15 23:24:00,38.0,33.0,-100.00,NE,36,1.0,5.0,82,0.00,,,0.02,22.000000,,2013-05-16 07:24:00,
2013-05-15 23:54:00,38.0,33.0,-100.00,NE,38,3.0,4.0,82,0.00,,,0.02,4.000000,,2013-05-16 07:54:00,